Location: Palomar Mountain Lodge
(33.3110°N, 116.8495°W)
Time: 14:55:53
(UTC-08:00)

Sich 1 - Pass Details

Date: 12 July 2018
Orbit: 595 x 626 km, 82.5° (Epoch: 12 November)

Event Time Altitude Azimuth Distance (km) Brightness Sun altitude
Exits shadow 21:53:28 24° 72° (ENE) 1,287 4.4 -20.2°
Drops below altitude 10° 21:56:21 10° 34° (NE) 2,000 5.8 -20.6°
Sets 21:58:52 0° 21° (NNE) 2,910 6.8 -21.0°
